STARLINK-1536 (46070 NORAD) Tracking and Keplerian Element Data

This shows tracking and keplerian element data for the satellite.

Feedback or suggestion? Click here.




ElementValue
Catalog46070
NameSTARLINK-1536
Epoch Orbit1918
Epoch Day335.72701653
Epoch Year2020
RAAN98.1032
Inclination53.0046
Eccentricity0.0001231
Argument of Perigee92.7422
Mean Anonmoly267.3707
Mean Motion15.05591134
Decay Rate9.35E-06
L11 46070U 20055AV 20335.72701653 .00000935 00000-0 83305-4 0 9993
L22 46070 53.0046 98.1032 0001231 92.7422 267.3707 15.05591134 19188

Live tracking and technical data element details for STARLINK-1536 (NORAD 46070). STARLINK-1536 can be tracked NOW for your location showing map with azimuth and elevation plus other details from your city location.

Track the satellite on the map from your city or location and see movement details for azimuth, elevation, latitude, longitude, range, height, and movement on the map or in text.







IsCatalogInMostPopularTable: catalog: 46070, numindb: 26
Update: records affected: 1



GetName: 46070 STARLINK-1536

Hit Count: updated at: Tue, 01 Dec 2020 21:16:07 GMT